Location: Bagnolo San Vito
(45.0833°N, 10.8833°E)
Time: 00:30:18
(UTC+00:00)

Cosmos 1354 Rocket - Pass Details

Date: 03 March 2021
Orbit: 765 x 782 km, 74.0° (Epoch: 17 April)

Event Time Altitude Azimuth Distance (km) Brightness Sun altitude
Rises 18:19:30 0° 340° (NNW) 3,250 7.6 -13.6°
Reaches altitude 10° 18:21:54 10° 342° (NNW) 2,317 6.8 -14.1°
Maximum altitude 18:27:09 76° 67° (ENE) 795 3.9 -15.0°
Drops below altitude 10° 18:32:22 10° 154° (SSE) 2,296 6.2 -15.9°
Enters shadow 18:33:31 - 155° (SSE) 2,743 6.6 -16.1°
